Location: Unspecified
(29.9680°N, 0.0000°E)
Time: 12:43:27
(UTC+00:00)

Vanguard 1 Rocket - Visible Passes

Search period start: 12 June 2021 00:00
Search period end: 22 June 2021 00:00
Orbit: 651 x 4225 km, 34.3° (Epoch: 11 June)

Date Brightness Start Highest point End Pass type
(mag) Time Alt. Az. Time Alt. Az. Time Alt. Az.
12 Jun 10.5 02:20:41 10° W 02:39:20 81° N 03:06:18 10° E visible
12 Jun 9.2 20:20:38 10° S 20:27:08 28° SE 20:37:49 10° E visible
12 Jun 9.2 22:42:40 10° WSW 22:52:49 83° SSE 23:13:25 10° ENE visible
13 Jun 10.1 01:08:29 10° W 01:23:49 77° N 01:49:57 10° E visible
13 Jun 10.6 03:36:26 10° WNW 03:57:58 86° SSW 04:24:09 10° ESE visible
13 Jun 8.8 21:32:21 10° SW 21:40:35 61° SE 21:57:02 10° ENE visible
13 Jun 9.7 23:56:51 10° W 00:09:14 79° N 00:32:58 10° E visible
14 Jun 10.4 02:23:45 10° WNW 02:42:10 84° NNE 03:09:07 10° ESE visible
14 Jun 8.9 20:22:50 10° SSW 20:29:24 36° SE 20:41:03 10° ENE visible
14 Jun 9.2 22:45:45 10° WSW 22:55:42 88° NNW 23:16:03 10° ENE visible
15 Jun 10.1 01:11:39 10° W 01:26:49 78° N 01:52:49 10° E visible
15 Jun 10.6 03:39:22 10° WNW 04:00:26 79° SSW 04:26:36 10° SE visible
15 Jun 8.7 21:35:12 10° SW 21:43:15 73° SSE 21:59:42 10° ENE visible
16 Jun 9.7 00:00:03 10° W 00:12:16 77° N 00:35:46 10° E visible
16 Jun 10.3 02:26:48 10° WNW 02:44:54 89° NNE 03:11:47 10° ESE visible
16 Jun 8.5 20:25:19 10° SW 20:31:51 47° SE 20:44:02 10° ENE visible
16 Jun 9.2 22:48:54 10° W 22:58:42 81° NNW 23:18:45 10° ENE visible
17 Jun 10.1 01:14:49 10° WNW 01:29:46 80° N 01:55:39 10° E visible
17 Jun 10.5 03:42:19 10° WNW 04:02:48 71° SSW 04:28:48 10° SE visible
17 Jun 8.6 21:38:13 10° WSW 21:46:06 85° SSE 22:02:22 10° ENE visible
18 Jun 9.7 00:03:16 10° W 00:15:20 76° N 00:38:38 10° E visible
18 Jun 10.3 02:29:49 10° WNW 02:47:32 85° SSW 03:14:17 10° ESE visible
18 Jun 8.3 20:28:04 10° SW 20:34:29 60° SSE 20:46:52 10° ENE visible
18 Jun 9.3 22:52:07 10° W 23:01:46 76° N 23:21:31 10° E visible
19 Jun 10.0 01:17:55 10° WNW 01:32:38 84° NNE 01:58:22 10° ESE visible
19 Jun 10.5 03:45:20 10° WNW 04:05:07 63° SSW 04:30:44 10° SE visible
19 Jun 8.5 19:18:36 10° SSW 19:23:43 32° SE 19:31:57 10° E visible
19 Jun 8.7 21:41:21 10° WSW 21:49:05 85° NNW 22:05:04 10° ENE visible
20 Jun 9.7 00:06:29 10° W 00:18:23 77° N 00:41:28 10° E visible
20 Jun 10.2 02:32:49 10° WNW 02:50:06 77° SSW 03:16:33 10° SE visible
20 Jun 8.1 20:30:58 10° WSW 20:37:17 74° SSE 20:49:38 10° ENE visible
20 Jun 9.3 22:55:22 10° W 23:04:53 74° N 23:24:21 10° E visible
21 Jun 9.9 01:21:00 10° WNW 01:35:26 90° SSW 02:00:57 10° ESE visible
21 Jun 10.5 03:48:27 10° WNW 04:07:25 54° SW 04:32:21 10° SE visible
21 Jun 8.1 19:21:08 10° SW 19:26:18 43° SE 19:35:04 10° ENE visible
21 Jun 8.7 21:44:34 10° W 21:52:11 77° N 22:07:49 10° ENE visible
